Weather in Temkino

Russia / Smolensk Oblast     55°06′43″N   35°00′55″E
temp.,
°C
wind,
m/s
gust,
m/s
humid.,
%
clouds,
%
prec.,
mm/h
press.,
hPa
HPBL,
m
5 august, thu
thu500:00+15ne11796 0.1 101720
03:00+13ene118648 0.1 101714
06:00+14ese2486100 0.0 1016133
09:00+19sse3568100 0.0 1016473
12:00+18s5877100 1.5 1016957
15:00+18sse477199 1.6 1015732
18:00+20sse267238 0.2 1013762
21:00+15ese3793100 0.3 1012168
6 august, fri
fri600:00+14e269895 0.6 1012159
03:00+14se259794 0.7 1011120
06:00+14sse2499100 0.3 1010125
09:00+18se2489100 0.3 1010319
12:00+18sse2597100 1.4 1010313
15:00+18se2697100 2.8 1010280
18:00+20e499177 0.1 1007481
21:00+18ne41098100 4.9 1007346
7 august, sat
sat700:00+17ene41097100 0.9 1007389
03:00+15e3799100 0.9 1006175
06:00+15ese2698100 0.0 1007130
09:00+20s249165 0.9 1007321
12:00+25s4762100 0.2 10071361
15:00+22s4886100 1.3 1007511
18:00+20wsw3793100 1.9 1008510
21:00+18wsw24945 2.0 1010118
8 august, sun
sun800:00+14wsw2596100 0.0 1011100
03:00+12s239749 0.0 101445
06:00+12ssw229628 0.0 101349
09:00+18sw25725 0.0 1014509
12:00+23wsw465141 0.0 10141562
15:00+24wsw3549100 0.0 10141956
18:00+21w117424 0.1 101518
21:00+17w1186100 0.1 101611
9 august, mon
mon900:00+15ssw1191100 0.0 101713
03:00+15wsw1184100 0.0 101810
06:00+14ssw11835 0.0 101721
09:00+21ssw24595 0.0 1017400
12:00+26ssw344337 0.0 10171135
15:00+28sw353911 0.0 10171542
18:00+27ssw36525 0.0 1016474
21:00+19ssw2488100 1.4 101770